Showing default

HULIANWANG DIGUI-97, 66413

Orbit data source: Space-Track

HULIANWANG DIGUI-97, 66413 is a payload satellite owned by Zhongguo Xingwang (CN) in LEO that was launched on Mon, 10 Nov 2025 UTC via a CHANG ZHENG 12 launch vehicle from the Wenchang Satellite Launch Center (WSC). Payload-class satellites include a variety of spacecraft equipped with specific instruments for various scientific and technological missions. These include communications satellites like Starlink; space stations such as the ISS; scientific satellites like the Hubble; Earth observation satellites from companies like Planet Labs, Umbra, and HawkEye 360; GPS; miniature CubeSats for education and research; and military/defense satellites.

Loading next visibility...
Identifier
66413, 2025-258B
Orbit
LEO
Country
Flag of CNCN / PRC
Related business
Manufacturer
SECM
Mission
Operational Civil Communications
Bus & Motor
XINGWANG S, Unknown motor
Mass
~800 kg wet, ~800 kg dry
Launch date (UTC)
2025-11-10 (7 months ago)
Launch vehicle
CHANG ZHENG 12
Launch site
Wenchang Satellite Launch Center (WSC)
Object type
Payload
Rocket body
Debris
Shape & HBR
Box + 2 Pan, 1.1 m
Radar Cross Section
5.935 m², Large (>1 m²)

Expand to show TLE details & history
Last TLE update: 1 day ago

TLE from 1 day ago
0 HULIANWANG DIGUI-97
1 66413U 25258B   26170.64463437 -.00000089  00000-0  74616-4 0  9991
2 66413  50.0018 287.0556 0001070 153.3276 206.7652 13.29324940 30057
Epoch: 2026-06-19T15:28Z
TLE epoch observation values (Epoch: 2026-06-19T15:28:16.409Z)
Latitude
0.00003°
Longitude
147.11661°
Altitude
1,150.536 km
Speed
7.279 km/s
True Right ascension
19h 08m 13s
True Declination
0° 00' 00"
Sunlit
Object was in full shadow at epoch
Visualization orbit readout
Latitude
Unknown
Longitude
Unknown
Altitude
Unknown
Speed
Unknown
Apparent Right ascension
Unknown
Apparent Declination
Unknown
Sunlit
N/A
Visualization observer readout
Local Sidereal Time
08:33:22
Azimuth
Unknown
Elevation
Unknown
Doppler factor
Unknown
Orbital elements
Apogee altitude
1,150.821 km
Perigee altitude
1,149.21 km
Semi-major axis
7,528.153 km
Eccentricity
0.00011
Inclination
50.0018°
RAAN
287.0556°
Arg. of periapsis
153.3276°
True anomaly
206.75968°
Mean anomaly
206.7652°
Eccentric anomaly
206.76244°
Mean motion
3.32285 °/min
Orbital period
108.34 mins
BSTAR
0.000074616
Loading maneuver chart data...
Computing Atmospheric mass density...
Loading historical data...
Loading historical data...
Loading historical data...
Loading historical data...
Loading historical data...
Loading historical data...
Loading historical data...

Documentation

Showing up to 5 results
|